Theta_e
314 314 314 314 315 314 315 315 316 316 316 317 318 318 318 317 318 318 317 317 318 320
313 314 314 314 314 314 313 316 314 314 312 314 314 313 313 312 312 312 312 312 313 314
312 312 314 313 312 312 312 310 310 311 310 309 309 310 307 306 309 307 307 308 306 306
307 309 309 308 307 306 306 305 305 306 306 306 305 304 303 303 305 305 303 302 303 303
305 306 305 305 304 304 303 303 303 303 303 304 304 303 302 302 302 303 301 301 301 301
302 302 302 302 301 302 301 300 300 301 301 301 302 301 300 300 300 301 299 299 299 299
299 300 300 300 299 299 299 298 298 299 300 300 300 300 300 300 299 298 300 300 299 299
297 298 299 299 298 298 298 298 298 298 299 299 299 301 299 299 298 297 298 299 299 300
297 298 297 297 297 297 297 297 297 297 297 297 300 300 301 302 298 298 298 298 299 299
296 296 296 296 296 295 295 295 295 296 296 297 298 299 298 300 300 300 300 299 298 299
294 295 295 295 294 294 294 294 295 296 297 296 298 299 298 299 301 302 302 302 301 301
293 298 299 294 293 294 295 299 296 297 297 297 301 299 298 299 303 303 303 304 304 304
297 298 293 293 294 298 300 300 300 299 299 299 302 300 298 299 303 302 303 304 305 303
295 295 293 294 296 298 300 301 301 301 302 304 305 304 299 298 301 302 302 302 302 304
Wind_Speed
9 5 5 8 5 6 5 2 2 4 5 5 4 4 3 3 3 4 4 5 3 3
7 5 6 7 7 5 5 6 6 6 5 6 6 6 6 4 5 4 4 5 5 3
6 6 6 5 6 6 6 4 5 5 6 7 6 6 4 4 3 5 3 3 4 4
7 6 7 8 7 5 4 5 5 6 6 5 5 5 5 6 4 4 2 3 3 4
8 9 9 7 5 6 7 6 6 5 5 5 5 6 5 6 5 4 5 5 5 5
7 7 6 5 5 6 4 5 6 5 5 5 5 5 5 4 4 3 5 5 6 6
7 6 5 3 2 1 2 4 5 5 6 6 6 6 6 5 4 5 6 7 7 8
5 5 5 5 5 6 6 5 5 6 6 6 6 6 6 6 7 7 9 9 10 10
6 5 5 6 6 6 6 7 7 7 7 9 6 11 13 10 6 7 9 10 11 11
5 5 5 6 6 6 7 6 7 7 6 8 9 12 13 14 8 9 10 10 11 11
6 6 5 6 6 7 5 6 7 8 9 8 9 13 13 14 9 8 10 12 13 13
6 7 7 7 7 7 5 8 5 5 8 8 10 12 13 11 9 9 11 11 14 14
7 6 6 6 7 5 7 8 7 8 8 11 11 11 11 9 6 8 8 10 12 14
8 7 6 7 6 7 7 7 8 9 10 9 9 11 12 11 6 6 7 8 9 8
Wind_Direction
56 45 69 73 67 35 352 15 33 52 65 53 33 30 18 59 49 49 16 354 330 286
70 52 44 53 76 60 356 342 355 359 28 40 39 31 29 25 34 38 28 16 358 345
88 60 47 58 47 77 55 1 1 5 13 23 13 15 25 34 55 57 33 43 23 7
83 78 70 62 54 44 47 25 17 14 11 12 7 355 7 0 11 12 13 27 17 315
65 61 62 46 39 30 30 1 2 0 350 343 344 348 352 339 334 322 352 329 307 287
57 71 68 55 35 35 360 334 345 338 322 331 327 319 315 310 317 307 291 274 268 261
56 59 56 56 52 262 298 344 331 313 314 321 318 315 306 301 300 289 292 282 277 273
52 45 43 24 357 357 353 332 316 309 316 307 313 301 309 307 308 303 300 291 284 282
25 32 19 5 355 347 332 332 314 324 323 321 314 300 304 308 291 285 277 279 276 268
6 12 2 354 347 334 325 323 318 312 308 309 302 305 307 306 301 285 276 275 282 283
350 341 341 353 340 324 315 315 311 315 313 304 303 299 297 294 297 292 282 272 274 277
331 340 355 343 325 312 300 312 302 291 296 298 300 297 296 309 297 288 286 289 277 275
331 350 346 323 306 297 300 305 312 301 295 288 295 296 285 299 310 293 289 286 291 285
346 346 340 320 309 309 314 319 324 322 319 321 332 332 327 307 300 286 295 292 291 287